Hourly Data Report for November 30, 2020

CARBERRY CS
MANITOBA
Current Station Operator: ECCC - MSC

49°54'20.900" N
99°21'26.800" W
383.50 m
5010547
71170
WZE

Download Data

Hourly Data (November 2020)
Hourly Data Report for November 30, 2020
TIME
LST
Temp Definition
°C
Dew Point Definition
°C
Rel Hum Definition
%
Precip. Amount Definition
mm

Wind Dir Definition
10's deg

Wind Spd Definition
km/h
Visibility Definition
km
Stn Press Definition
kPa
Hmdx Definition


Wind Chill Definition


Weather Definition


00:00 -10.7 -11.5 94 0.0 17 10   97.67   -16 LegendNANA
01:00 -11.0 -12.3 90 0.0 17 10   97.61   -16 LegendNANA
02:00 -10.2 -12.2 85 0.0 16 11   97.50   -16 LegendNANA
03:00 -10.3 -12.4 84 0.0 15 11   97.41   -16 LegendNANA
04:00 -10.0 -12.1 85 0.0 16 10   97.30   -15 LegendNANA
05:00 -9.6 -12.1 82 0.0 19 10   97.19   -15 LegendNANA
06:00 -9.9 -12.5 81 0.0 18 7   97.08   -14 LegendNANA
07:00 -8.7 -11.7 79 0.0 21 9   96.99   -13 LegendNANA
08:00 -9.9 -12.2 83 0.0 19 10   96.95   -15 LegendNANA
09:00 -8.7 -11.7 79 0.0 21 4   96.92   -11 LegendNANA
10:00 -6.4 -9.8 77 0.0 22 7   96.88   -10 LegendNANA
11:00 -4.0 -8.5 70 0.0 20 11   96.82   -8 LegendNANA
12:00 -0.7 -6.8 64 0.0 22 10   96.71   -4 LegendNANA
13:00 1.4 -7.0 53 0.0 23 13   96.62     LegendNANA
14:00 3.6 -6.4 48 0.0 18 14   96.50     LegendNANA
15:00 4.3 -6.8 44 0.0 19 14   96.42     LegendNANA
16:00 2.2 -6.5 53 0.0 16 15   96.38     LegendNANA
17:00 -0.7 -7.2 61 0.0 15 11   96.30   -4 LegendNANA
18:00 -1.7 -7.2 66 0.0 17 12   96.30   -6 LegendNANA
19:00 -2.4 -7.3 69 0.0 17 15   96.28   -7 LegendNANA
20:00 -2.7 -7.2 71 0.0 16 11   96.27   -7 LegendNANA
21:00 -3.2 -7.4 73 0.0 16 11   96.20   -7 LegendNANA
22:00 -7.0 -9.8 80 0.0 20 4   96.20   -9 LegendNANA
23:00 -6.5 -9.0 82 0.0 15 10   96.20   -11 LegendNANA

Notes on Data Quality.

Legend

  • E = Estimated
  • M = Missing
  • NA = Not Available*
  • [empty] = Indicates an unobserved value
Date modified: